Weather Roundup
Issued by NWS Springfield, MO

Home | Current Version | Previous Version | Text Only | Print | Product List | Glossary On
Versions: 1 2 3 4 5 6 7 8 9 10 11 12 13 14 15 16 17 18 19 20 21 22 23 24 25 26 27 28 29 30 31 32 33 34 35 36 37 38 39 40 41 42 43 44 45 46 47 48 49 50
000
NZUS99 KSGF 291659
HRRSGF

HOURLY WEATHER
NATIONAL WEATHER SERVICE SPRINGFIELD MO
1100 AM CST THU JAN 29 2015

......SGF CWA......

CITY           SKY/WX    TMP DP  RH WIND       PRES   REMARKS
SPRINGFIELD    CLOUDY    40  30  67 N20       30.27R WCI  30
JOPLIN         CLOUDY    40  30  67 N18G28    30.36R WCI  31
WEST PLAINS    CLOUDY    44  34  67 NW9       30.19R
ROLLA          CLOUDY    38  30  73 NW15G22   30.18R WCI  29
OSAGE BEACH    CLOUDY    39  27  60 NW14G22   30.25R WCI  31
BRANSON        CLOUDY    45  36  70 NW15G23   30.25R

......SURROUNDING SGF CWA......

CITY           SKY/WX    TMP DP  RH WIND       PRES   REMARKS
CHANUTE        CLOUDY    43  30  60 N15G26    30.38R
PARSONS        CLOUDY    43  30  60 N16G25    30.40R
COFFEYVILLE    CLOUDY    43  29  57 N18G29    30.41R
EMPORIA        CLOUDY    41  28  60 N23G36    30.40R
SILOAM SPRINGS CLOUDY    43  28  56 N20G28    30.33R
HARRISON AR    CLOUDY    45  37  73 NW15G24   30.24R
NEAR YELLVILLE CLOUDY    48  34  57 NW14G20   30.22R

......KANSAS AND MISSOURI......

CITY           SKY/WX    TMP DP  RH WIND       PRES   REMARKS
KANSAS CTY INT CLOUDY    40  27  59 N18G25    30.32R WCI  31
DOWNTOWN KC    CLOUDY    41  27  57 NW17G26   30.33R
COLUMBIA       CLOUDY    40  29  64 NW18G29   30.22R WCI  31
SEDALIA        CLOUDY    40  28  62 NW22      30.29R WCI  30
ST JOSEPH      NOT AVBL
ST LOUIS       CLOUDY    42  30  62 NW16G25   30.13R
SPIRIT OF STL  CLOUDY    41  29  62 NW16G22   30.15R
KIRKSVILLE     CLOUDY    37  31  78 NW14G25   30.21R WCI  28
WICHITA        CLOUDY    46  27  47 N23G31    30.44R
TOPEKA         CLOUDY    42  27  55 N22G38    30.39R
OLATHE         CLOUDY    39  28  64 N16G25    30.32R WCI  30

......TENNESSEE......

CITY           SKY/WX    TMP DP  RH WIND       PRES   REMARKS
MEMPHIS        CLOUDY    60  46  59 SW12G17   30.12R
NASHVILLE      MOSUNNY   59  36  42 SW16G26   30.04F

......ARKANSAS.......

CITY           SKY/WX    TMP DP  RH WIND       PRES   REMARKS
FAYETTEVILLE   CLOUDY    46  37  71 NW13      30.29R
FT SMITH       MOSUNNY   55  36  48 NW18G25   30.27R
LITTLE ROCK    CLOUDY    63  40  42 NW14      30.15R

......OKLAHOMA.......

CITY           SKY/WX    TMP DP  RH WIND       PRES   REMARKS
TULSA          CLOUDY    47  32  56 N25G33    30.38R
PONCA CITY     CLOUDY    48  29  47 N20G30    30.44R
MCALESTER      SUNNY     58  37  45 N18G24    30.32R
OKLAHOMA CITY  PTSUNNY   48  31  51 N28G38    30.39R

......IOWA............

CITY           SKY/WX    TMP DP  RH WIND       PRES   REMARKS
DES MOINES     CLOUDY    34  27  75 N17G26    30.26R WCI  23
QUAD CITIES    CLOUDY    36  30  79 NW20G28   30.06R WCI  25

......ILLINOIS........

CITY           SKY/WX    TMP DP  RH WIND       PRES   REMARKS
QUINCY         CLOUDY    38  31  76 NW20G29   30.14R WCI  28
CHICAGO        CLOUDY    34  27  75 NW22G28   29.90R WCI  22



USA.gov is the U.S. government's official web portal to all federal, state and local government web resources and services.